QPF
0.00 0.00 0.00 0.00 0.00 0.00 0.00 0.00 0.00 0.00 0.00 0.00 0.00 0.00 0.00 0.01 0.02 0.05 0.07 0.09 0.09 0.08 0.08 0.12 0.15 0.15 0.14 0.19 0.29 0.32 0.28 0.24 0.13 0.03 0.00 0.00 0.00 0.00 0.00 0.01 0.01 0.02 0.02
0.00 0.00 0.00 0.00 0.00 0.00 0.00 0.00 0.00 0.00 0.00 0.00 0.00 0.00 0.00 0.01 0.01 0.04 0.07 0.09 0.10 0.09 0.09 0.09 0.11 0.11 0.11 0.11 0.18 0.33 0.33 0.33 0.29 0.15 0.03 0.00 0.00 0.00 0.00 0.00 0.01 0.01 0.02
0.00 0.00 0.00 0.00 0.00 0.00 0.00 0.00 0.00 0.00 0.00 0.00 0.00 0.00 0.00 0.00 0.01 0.02 0.05 0.08 0.12 0.12 0.10 0.10 0.11 0.09 0.07 0.08 0.09 0.19 0.30 0.32 0.36 0.32 0.15 0.03 0.00 0.00 0.00 0.00 0.00 0.01 0.01
0.00 0.00 0.00 0.00 0.00 0.00 0.00 0.00 0.00 0.00 0.00 0.00 0.00 0.00 0.00 0.00 0.00 0.01 0.02 0.05 0.10 0.14 0.14 0.13 0.13 0.11 0.08 0.06 0.06 0.09 0.19 0.24 0.33 0.39 0.33 0.13 0.02 0.00 0.00 0.00 0.00 0.00 0.01
0.00 0.00 0.00 0.00 0.00 0.00 0.00 0.00 0.00 0.00 0.00 0.00 0.00 0.00 0.00 0.00 0.00 0.00 0.00 0.02 0.05 0.09 0.13 0.15 0.14 0.12 0.10 0.07 0.06 0.05 0.08 0.14 0.22 0.33 0.37 0.29 0.10 0.02 0.00 0.00 0.00 0.00 0.00
0.00 0.00 0.00 0.00 0.00 0.00 0.00 0.00 0.00 0.00 0.00 0.00 0.00 0.00 0.00 0.00 0.00 0.00 0.00 0.00 0.01 0.04 0.08 0.11 0.12 0.11 0.09 0.07 0.06 0.05 0.04 0.05 0.11 0.20 0.28 0.31 0.21 0.07 0.01 0.00 0.00 0.00 0.00
0.00 0.00 0.00 0.00 0.00 0.01 0.00 0.00 0.00 0.00 0.00 0.00 0.00 0.00 0.00 0.00 0.00 0.00 0.00 0.00 0.00 0.02 0.05 0.08 0.09 0.10 0.09 0.09 0.07 0.04 0.03 0.03 0.05 0.11 0.18 0.24 0.24 0.13 0.04 0.01 0.00 0.00 0.00
0.00 0.00 0.00 0.00 0.00 0.00 0.00 0.00 0.00 0.02 0.01 0.01 0.01 0.02 0.01 0.00 0.00 0.00 0.00 0.00 0.00 0.00 0.02 0.04 0.06 0.07 0.07 0.07 0.05 0.04 0.03 0.02 0.04 0.08 0.10 0.19 0.26 0.23 0.10 0.03 0.01 0.00 0.00
0.00 0.00 0.00 0.00 0.00 0.00 0.00 0.00 0.01 0.02 0.02 0.01 0.01 0.04 0.06 0.04 0.01 0.00 0.00 0.00 0.00 0.00 0.00 0.01 0.03 0.05 0.05 0.06 0.05 0.04 0.03 0.02 0.03 0.07 0.09 0.11 0.21 0.28 0.17 0.05 0.02 0.01 0.00
0.00 0.00 0.00 0.00 0.00 0.00 0.00 0.00 0.00 0.01 0.03 0.03 0.01 0.02 0.04 0.04 0.05 0.02 0.00 0.00 0.00 0.00 0.00 0.00 0.01 0.02 0.03 0.04 0.04 0.04 0.04 0.04 0.03 0.05 0.11 0.10 0.13 0.22 0.21 0.09 0.03 0.01 0.00
0.00 0.00 0.00 0.00 0.00 0.00 0.00 0.00 0.00 0.00 0.02 0.03 0.03 0.03 0.02 0.02 0.03 0.04 0.01 0.00 0.00 0.00 0.00 0.00 0.01 0.01 0.03 0.03 0.03 0.03 0.04 0.07 0.09 0.07 0.10 0.13 0.14 0.19 0.27 0.18 0.05 0.01 0.00
0.00 0.00 0.00 0.00 0.00 0.00 0.00 0.00 0.00 0.00 0.01 0.01 0.02 0.03 0.04 0.05 0.04 0.04 0.03 0.00 0.00 0.00 0.00 0.01 0.01 0.01 0.02 0.04 0.05 0.05 0.05 0.08 0.15 0.13 0.09 0.11 0.16 0.19 0.25 0.25 0.10 0.03 0.01
0.00 0.00 0.00 0.00 0.00 0.00 0.00 0.00 0.00 0.00 0.00 0.01 0.02 0.02 0.03 0.04 0.04 0.03 0.03 0.01 0.00 0.00 0.00 0.01 0.02 0.02 0.02 0.04 0.05 0.06 0.05 0.07 0.11 0.13 0.08 0.05 0.13 0.20 0.23 0.27 0.19 0.07 0.01
0.00 0.00 0.00 0.00 0.00 0.00 0.00 0.00 0.00 0.00 0.01 0.01 0.01 0.02 0.03 0.03 0.03 0.03 0.04 0.04 0.02 0.00 0.00 0.01 0.02 0.02 0.03 0.03 0.04 0.04 0.03 0.05 0.07 0.11 0.11 0.07 0.08 0.15 0.23 0.29 0.36 0.32 0.16
0.00 0.00 0.00 0.00 0.00 0.00 0.00 0.00 0.00 0.01 0.01 0.02 0.02 0.02 0.04 0.03 0.02 0.03 0.03 0.04 0.04 0.03 0.00 0.00 0.02 0.06 0.08 0.05 0.04 0.04 0.03 0.04 0.05 0.07 0.09 0.10 0.08 0.09 0.12 0.18 0.29 0.41 0.51
0.00 0.00 0.00 0.00 0.00 0.00 0.00 0.00 0.00 0.01 0.02 0.02 0.03 0.03 0.03 0.02 0.02 0.02 0.02 0.03 0.03 0.04 0.02 0.00 0.02 0.06 0.12 0.13 0.09 0.06 0.05 0.05 0.05 0.04 0.04 0.05 0.05 0.06 0.08 0.10 0.14 0.21 0.37
0.00 0.00 0.00 0.00 0.00 0.00 0.00 0.00 0.00 0.01 0.02 0.02 0.02 0.03 0.02 0.02 0.03 0.03 0.03 0.04 0.04 0.04 0.03 0.01 0.01 0.04 0.11 0.17 0.17 0.10 0.05 0.04 0.03 0.03 0.02 0.01 0.01 0.02 0.03 0.06 0.09 0.12 0.17
0.00 0.00 0.00 0.00 0.00 0.00 0.00 0.00 0.00 0.01 0.02 0.03 0.03 0.04 0.03 0.04 0.04 0.04 0.05 0.05 0.05 0.05 0.05 0.02 0.01 0.03 0.08 0.15 0.22 0.19 0.10 0.05 0.03 0.03 0.02 0.01 0.00 0.00 0.01 0.03 0.06 0.10 0.13
0.00 0.00 0.00 0.00 0.01 0.02 0.03 0.03 0.02 0.02 0.05 0.06 0.06 0.05 0.05 0.07 0.08 0.07 0.09 0.09 0.07 0.08 0.08 0.06 0.02 0.03 0.05 0.09 0.18 0.25 0.17 0.08 0.04 0.03 0.02 0.01 0.00 0.00 0.00 0.01 0.04 0.09 0.12
0.00 0.00 0.00 0.00 0.02 0.06 0.10 0.12 0.11 0.10 0.11 0.08 0.05 0.03 0.06 0.13 0.12 0.11 0.12 0.10 0.09 0.08 0.08 0.07 0.04 0.02 0.03 0.06 0.11 0.20 0.22 0.13 0.06 0.03 0.02 0.01 0.00 0.00 0.00 0.01 0.01 0.05 0.14
0.00 0.00 0.00 0.00 0.02 0.10 0.27 0.41 0.33 0.19 0.10 0.04 0.01 0.01 0.05 0.10 0.09 0.12 0.14 0.10 0.09 0.08 0.08 0.07 0.05 0.04 0.03 0.05 0.08 0.12 0.18 0.16 0.09 0.04 0.02 0.01 0.01 0.02 0.02 0.02 0.02 0.03 0.08
0.00 0.00 0.00 0.00 0.01 0.10 0.36 0.47 0.25 0.10 0.04 0.02 0.01 0.01 0.03 0.07 0.05 0.06 0.10 0.11 0.10 0.10 0.09 0.07 0.07 0.07 0.06 0.06 0.06 0.07 0.10 0.14 0.11 0.05 0.03 0.03 0.04 0.04 0.03 0.03 0.04 0.04 0.06
0.00 0.00 0.00 0.00 0.00 0.06 0.29 0.28 0.10 0.04 0.03 0.01 0.01 0.02 0.03 0.07 0.05 0.02 0.05 0.06 0.06 0.07 0.08 0.08 0.08 0.08 0.08 0.07 0.05 0.04 0.05 0.08 0.08 0.05 0.05 0.06 0.06 0.05 0.04 0.07 0.09 0.08 0.08
0.00 0.00 0.00 0.00 0.00 0.04 0.22 0.16 0.03 0.02 0.01 0.00 0.01 0.01 0.02 0.04 0.05 0.01 0.02 0.04 0.05 0.07 0.10 0.10 0.09 0.08 0.05 0.04 0.03 0.02 0.02 0.03 0.04 0.05 0.07 0.11 0.13 0.10 0.13 0.15 0.17 0.15 0.12
0.00 0.00 0.00 0.00 0.00 0.01 0.12 0.12 0.01 0.01 0.00 0.00 0.00 0.00 0.01 0.01 0.03 0.01 0.00 0.02 0.02 0.04 0.06 0.08 0.07 0.06 0.04 0.03 0.02 0.01 0.02 0.03 0.04 0.05 0.09 0.14 0.25 0.22 0.28 0.35 0.31 0.23 0.18
0.00 0.00 0.00 0.00 0.00 0.00 0.04 0.08 0.03 0.00 0.00 0.00 0.00 0.00 0.01 0.02 0.02 0.01 0.00 0.01 0.02 0.02 0.04 0.04 0.04 0.04 0.03 0.03 0.03 0.03 0.03 0.05 0.05 0.09 0.15 0.17 0.29 0.27 0.34 0.47 0.41 0.27 0.20
MSLP
1027.84 1027.22 1026.52 1025.77 1024.99 1024.22 1023.46 1022.73 1022.01 1021.28 1020.52 1019.71 1018.84 1017.92 1016.95 1015.97 1014.99 1014.05 1013.16 1012.33 1011.59 1010.94 1010.41 1010.01 1009.78 1009.73 1009.85 1010.13 1010.53 1011.03 1011.56 1012.08 1012.55 1012.97 1013.34 1013.66 1013.98 1014.30 1014.65 1015.04 1015.45 1015.88 1016.31
1028.25 1027.56 1026.81 1026.01 1025.21 1024.43 1023.68 1022.96 1022.26 1021.54 1020.78 1019.95 1019.05 1018.08 1017.08 1016.06 1015.04 1014.07 1013.15 1012.30 1011.53 1010.86 1010.29 1009.85 1009.56 1009.44 1009.48 1009.68 1010.01 1010.45 1010.93 1011.44 1011.92 1012.37 1012.79 1013.18 1013.56 1013.95 1014.35 1014.77 1015.20 1015.63 1016.05
1028.58 1027.85 1027.05 1026.24 1025.43 1024.66 1023.93 1023.23 1022.53 1021.80 1021.02 1020.15 1019.21 1018.19 1017.14 1016.07 1015.03 1014.03 1013.10 1012.24 1011.47 1010.78 1010.20 1009.73 1009.40 1009.21 1009.18 1009.30 1009.55 1009.91 1010.34 1010.81 1011.29 1011.76 1012.22 1012.67 1013.12 1013.57 1014.02 1014.48 1014.93 1015.37 1015.80
1028.83 1028.07 1027.26 1026.44 1025.65 1024.91 1024.20 1023.52 1022.82 1022.07 1021.25 1020.33 1019.32 1018.25 1017.14 1016.03 1014.96 1013.95 1013.01 1012.17 1011.40 1010.72 1010.14 1009.65 1009.29 1009.05 1008.95 1008.99 1009.16 1009.43 1009.80 1010.22 1010.68 1011.15 1011.64 1012.14 1012.64 1013.14 1013.65 1014.14 1014.63 1015.08 1015.52
1028.99 1028.22 1027.42 1026.63 1025.87 1025.16 1024.49 1023.82 1023.11 1022.33 1021.46 1020.48 1019.41 1018.28 1017.12 1015.97 1014.88 1013.87 1012.95 1012.12 1011.37 1010.71 1010.13 1009.63 1009.24 1008.95 1008.78 1008.74 1008.82 1009.01 1009.29 1009.65 1010.07 1010.54 1011.04 1011.56 1012.10 1012.66 1013.20 1013.74 1014.26 1014.74 1015.19
1029.05 1028.28 1027.51 1026.76 1026.06 1025.40 1024.76 1024.10 1023.39 1022.58 1021.65 1020.62 1019.49 1018.31 1017.12 1015.96 1014.86 1013.86 1012.96 1012.15 1011.42 1010.78 1010.20 1009.69 1009.26 1008.92 1008.69 1008.56 1008.54 1008.64 1008.83 1009.11 1009.48 1009.91 1010.40 1010.94 1011.50 1012.09 1012.68 1013.26 1013.81 1014.33 1014.81
1029.01 1028.26 1027.52 1026.84 1026.20 1025.59 1024.99 1024.35 1023.63 1022.79 1021.83 1020.76 1019.60 1018.40 1017.20 1016.04 1014.96 1013.98 1013.11 1012.32 1011.61 1010.97 1010.38 1009.85 1009.38 1008.98 1008.66 1008.44 1008.32 1008.31 1008.41 1008.60 1008.89 1009.28 1009.73 1010.26 1010.84 1011.45 1012.07 1012.69 1013.28 1013.84 1014.37
1028.90 1028.16 1027.48 1026.85 1026.27 1025.72 1025.16 1024.53 1023.82 1022.98 1022.00 1020.92 1019.76 1018.57 1017.39 1016.27 1015.22 1014.28 1013.43 1012.66 1011.96 1011.31 1010.69 1010.12 1009.59 1009.12 1008.72 1008.40 1008.17 1008.04 1008.03 1008.12 1008.32 1008.63 1009.04 1009.54 1010.12 1010.74 1011.39 1012.05 1012.69 1013.31 1013.89
1028.75 1028.03 1027.38 1026.80 1026.28 1025.78 1025.25 1024.66 1023.96 1023.12 1022.17 1021.11 1019.98 1018.84 1017.71 1016.64 1015.65 1014.74 1013.92 1013.16 1012.44 1011.76 1011.10 1010.47 1009.88 1009.32 1008.83 1008.41 1008.07 1007.83 1007.70 1007.68 1007.79 1008.01 1008.36 1008.82 1009.37 1010.00 1010.68 1011.37 1012.06 1012.73 1013.37
1028.59 1027.89 1027.27 1026.74 1026.25 1025.78 1025.28 1024.71 1024.03 1023.22 1022.30 1021.30 1020.24 1019.16 1018.11 1017.11 1016.18 1015.31 1014.50 1013.73 1012.99 1012.26 1011.55 1010.86 1010.19 1009.56 1008.97 1008.46 1008.02 1007.67 1007.43 1007.30 1007.31 1007.45 1007.72 1008.13 1008.66 1009.28 1009.96 1010.69 1011.42 1012.14 1012.84
1028.47 1027.77 1027.17 1026.65 1026.19 1025.73 1025.24 1024.67 1024.01 1023.24 1022.37 1021.44 1020.46 1019.48 1018.51 1017.59 1016.70 1015.87 1015.06 1014.27 1013.49 1012.71 1011.95 1011.19 1010.46 1009.76 1009.12 1008.52 1008.00 1007.57 1007.23 1007.00 1006.91 1006.96 1007.16 1007.52 1008.00 1008.61 1009.29 1010.04 1010.80 1011.56 1012.31
1028.40 1027.70 1027.09 1026.56 1026.08 1025.60 1025.09 1024.52 1023.87 1023.13 1022.32 1021.46 1020.58 1019.68 1018.81 1017.95 1017.11 1016.29 1015.48 1014.66 1013.84 1013.01 1012.20 1011.40 1010.63 1009.89 1009.20 1008.57 1008.00 1007.49 1007.08 1006.78 1006.61 1006.58 1006.71 1007.00 1007.45 1008.02 1008.70 1009.44 1010.22 1011.00 1011.77
1028.36 1027.64 1027.00 1026.43 1025.90 1025.37 1024.82 1024.22 1023.57 1022.86 1022.10 1021.31 1020.51 1019.70 1018.90 1018.10 1017.30 1016.48 1015.65 1014.80 1013.94 1013.08 1012.24 1011.42 1010.64 1009.90 1009.20 1008.56 1007.97 1007.44 1006.99 1006.63 1006.40 1006.31 1006.38 1006.61 1007.01 1007.54 1008.19 1008.92 1009.68 1010.46 1011.23
1028.32 1027.57 1026.88 1026.24 1025.62 1025.01 1024.39 1023.74 1023.07 1022.37 1021.66 1020.93 1020.21 1019.48 1018.75 1017.99 1017.21 1016.39 1015.54 1014.66 1013.77 1012.89 1012.04 1011.22 1010.46 1009.76 1009.10 1008.48 1007.91 1007.38 1006.92 1006.54 1006.26 1006.13 1006.14 1006.33 1006.67 1007.16 1007.77 1008.45 1009.19 1009.94 1010.69
1028.24 1027.44 1026.67 1025.93 1025.21 1024.50 1023.79 1023.08 1022.37 1021.68 1021.00 1020.34 1019.68 1019.03 1018.35 1017.63 1016.86 1016.04 1015.17 1014.27 1013.36 1012.47 1011.63 1010.85 1010.13 1009.48 1008.88 1008.32 1007.79 1007.30 1006.85 1006.46 1006.17 1006.00 1005.98 1006.12 1006.42 1006.85 1007.40 1008.04 1008.72 1009.42 1010.14
1028.08 1027.22 1026.36 1025.51 1024.67 1023.84 1023.04 1022.26 1021.52 1020.84 1020.19 1019.59 1019.00 1018.40 1017.77 1017.09 1016.34 1015.51 1014.63 1013.71 1012.80 1011.92 1011.10 1010.36 1009.71 1009.12 1008.59 1008.10 1007.63 1007.17 1006.75 1006.37 1006.08 1005.90 1005.85 1005.95 1006.20 1006.58 1007.08 1007.65 1008.26 1008.91 1009.57
1027.84 1026.90 1025.95 1024.99 1024.04 1023.10 1022.21 1021.37 1020.62 1019.94 1019.34 1018.79 1018.27 1017.74 1017.16 1016.51 1015.77 1014.95 1014.06 1013.14 1012.22 1011.36 1010.57 1009.87 1009.27 1008.75 1008.28 1007.84 1007.42 1007.01 1006.62 1006.26 1005.97 1005.77 1005.71 1005.78 1005.99 1006.32 1006.76 1007.26 1007.82 1008.40 1009.01
1027.54 1026.54 1025.50 1024.45 1023.40 1022.37 1021.42 1020.55 1019.79 1019.13 1018.58 1018.09 1017.64 1017.17 1016.64 1016.03 1015.31 1014.49 1013.60 1012.68 1011.78 1010.92 1010.16 1009.49 1008.93 1008.44 1008.02 1007.62 1007.23 1006.84 1006.46 1006.11 1005.81 1005.61 1005.53 1005.58 1005.76 1006.05 1006.43 1006.88 1007.38 1007.91 1008.47
1027.24 1026.19 1025.10 1023.97 1022.86 1021.79 1020.80 1019.91 1019.16 1018.55 1018.05 1017.63 1017.23 1016.82 1016.34 1015.76 1015.06 1014.26 1013.37 1012.46 1011.55 1010.71 1009.96 1009.30 1008.75 1008.28 1007.87 1007.47 1007.08 1006.69 1006.30 1005.94 1005.63 1005.42 1005.32 1005.35 1005.50 1005.76 1006.10 1006.51 1006.97 1007.46 1007.99
1027.02 1025.95 1024.83 1023.68 1022.53 1021.44 1020.45 1019.58 1018.86 1018.28 1017.84 1017.47 1017.13 1016.76 1016.32 1015.76 1015.08 1014.29 1013.41 1012.50 1011.60 1010.76 1010.01 1009.36 1008.80 1008.32 1007.88 1007.46 1007.03 1006.60 1006.18 1005.79 1005.46 1005.22 1005.10 1005.10 1005.23 1005.47 1005.79 1006.18 1006.61 1007.08 1007.60
1026.95 1025.89 1024.77 1023.63 1022.49 1021.42 1020.45 1019.61 1018.92 1018.39 1017.97 1017.64 1017.33 1016.99 1016.56 1016.02 1015.36 1014.57 1013.70 1012.80 1011.91 1011.07 1010.32 1009.65 1009.07 1008.56 1008.07 1007.60 1007.12 1006.63 1006.15 1005.70 1005.32 1005.04 1004.89 1004.87 1004.98 1005.21 1005.52 1005.91 1006.34 1006.82 1007.35
1027.05 1026.03 1024.95 1023.85 1022.76 1021.73 1020.80 1020.00 1019.34 1018.83 1018.43 1018.11 1017.80 1017.45 1017.02 1016.47 1015.80 1015.02 1014.17 1013.28 1012.40 1011.57 1010.82 1010.15 1009.55 1008.99 1008.45 1007.91 1007.35 1006.78 1006.22 1005.70 1005.26 1004.93 1004.74 1004.69 1004.79 1005.02 1005.35 1005.75 1006.21 1006.72 1007.29
1027.33 1026.37 1025.36 1024.33 1023.30 1022.33 1021.44 1020.67 1020.03 1019.52 1019.12 1018.77 1018.43 1018.05 1017.59 1017.02 1016.34 1015.56 1014.71 1013.85 1013.00 1012.19 1011.45 1010.78 1010.16 1009.57 1008.98 1008.37 1007.73 1007.07 1006.43 1005.82 1005.30 1004.91 1004.68 1004.60 1004.69 1004.93 1005.28 1005.72 1006.24 1006.80 1007.43
1027.74 1026.86 1025.93 1024.98 1024.02 1023.11 1022.26 1021.52 1020.88 1020.36 1019.91 1019.51 1019.12 1018.68 1018.17 1017.57 1016.87 1016.09 1015.26 1014.42 1013.61 1012.84 1012.14 1011.48 1010.86 1010.25 1009.61 1008.94 1008.23 1007.49 1006.75 1006.06 1005.47 1005.01 1004.72 1004.62 1004.71 1004.96 1005.36 1005.86 1006.45 1007.10 1007.81
1028.20 1027.40 1026.55 1025.68 1024.79 1023.94 1023.13 1022.40 1021.76 1021.20 1020.71 1020.25 1019.79 1019.28 1018.72 1018.07 1017.35 1016.58 1015.77 1014.97 1014.21 1013.49 1012.83 1012.20 1011.60 1010.98 1010.32 1009.60 1008.82 1008.01 1007.19 1006.41 1005.74 1005.22 1004.89 1004.77 1004.86 1005.14 1005.59 1006.18 1006.86 1007.62 1008.43
1028.63 1027.90 1027.13 1026.32 1025.50 1024.70 1023.92 1023.21 1022.56 1021.98 1021.44 1020.92 1020.40 1019.83 1019.22 1018.54 1017.81 1017.04 1016.26 1015.50 1014.79 1014.12 1013.51 1012.92 1012.33 1011.72 1011.04 1010.29 1009.46 1008.59 1007.71 1006.86 1006.13 1005.56 1005.19 1005.05 1005.15 1005.48 1005.99 1006.67 1007.46 1008.33 1009.25
Thickness
5407 5407 5408 5412 5417 5421 5429 5439 5451 5465 5478 5492 5506 5522 5536 5549 5565 5581 5597 5612 5627 5640 5653 5664 5669 5674 5678 5682 5684 5684 5686 5686 5688 5691 5693 5696 5698 5699 5701 5702 5702 5702 5703
5374 5374 5376 5380 5384 5388 5396 5406 5418 5432 5447 5462 5478 5493 5511 5528 5545 5560 5577 5594 5609 5623 5637 5649 5657 5663 5669 5674 5677 5678 5680 5680 5681 5684 5687 5691 5693 5695 5697 5698 5698 5699 5699
5347 5347 5348 5351 5354 5359 5367 5376 5387 5400 5416 5432 5449 5466 5486 5505 5521 5537 5555 5573 5589 5604 5618 5631 5642 5650 5658 5665 5670 5673 5675 5675 5675 5678 5681 5685 5688 5690 5692 5693 5694 5695 5695
5326 5325 5326 5327 5329 5334 5341 5349 5359 5371 5386 5402 5420 5439 5458 5478 5497 5515 5532 5551 5569 5585 5600 5613 5626 5637 5646 5654 5661 5666 5669 5671 5671 5674 5677 5679 5682 5685 5688 5689 5689 5690 5691
5306 5305 5307 5307 5309 5313 5318 5325 5334 5345 5359 5375 5393 5413 5430 5450 5472 5491 5509 5529 5549 5567 5582 5596 5609 5621 5631 5641 5649 5656 5661 5665 5667 5670 5674 5675 5676 5679 5682 5684 5685 5686 5687
5288 5287 5287 5287 5289 5292 5296 5302 5310 5321 5334 5350 5368 5387 5405 5425 5446 5465 5485 5505 5526 5546 5563 5578 5591 5604 5616 5626 5636 5645 5651 5657 5662 5665 5670 5672 5671 5672 5676 5679 5680 5682 5683
5270 5269 5267 5267 5268 5270 5274 5279 5287 5299 5311 5325 5344 5365 5387 5405 5424 5440 5457 5477 5499 5520 5539 5556 5571 5586 5599 5611 5622 5632 5641 5649 5655 5660 5664 5668 5669 5669 5670 5673 5675 5677 5679
5255 5253 5250 5250 5250 5252 5255 5259 5265 5275 5286 5298 5315 5339 5362 5384 5400 5416 5431 5452 5473 5492 5513 5533 5548 5564 5579 5594 5607 5619 5629 5638 5647 5653 5658 5663 5666 5667 5666 5668 5669 5672 5674
5243 5241 5238 5237 5237 5237 5238 5241 5246 5251 5262 5274 5287 5305 5329 5350 5370 5395 5408 5426 5445 5465 5488 5509 5528 5543 5558 5575 5592 5606 5618 5627 5636 5644 5651 5657 5661 5664 5664 5664 5665 5667 5669
5234 5231 5228 5227 5225 5225 5225 5226 5230 5232 5240 5252 5264 5281 5297 5315 5337 5365 5388 5403 5420 5441 5463 5487 5506 5525 5542 5558 5574 5590 5605 5617 5625 5634 5642 5649 5655 5659 5661 5661 5661 5663 5664
5224 5220 5218 5215 5214 5213 5213 5214 5216 5218 5223 5232 5244 5259 5276 5296 5315 5335 5360 5383 5400 5418 5440 5463 5486 5507 5526 5543 5557 5575 5591 5605 5615 5624 5632 5640 5647 5652 5656 5657 5658 5660 5660
5214 5208 5206 5202 5201 5200 5200 5202 5204 5206 5211 5218 5228 5241 5255 5274 5296 5315 5335 5354 5376 5397 5419 5443 5467 5488 5508 5526 5542 5558 5578 5594 5606 5614 5622 5629 5636 5643 5648 5651 5654 5656 5656
5203 5197 5192 5188 5186 5186 5187 5189 5191 5194 5200 5206 5215 5225 5238 5254 5274 5295 5316 5335 5353 5376 5398 5424 5447 5469 5489 5508 5525 5543 5564 5582 5596 5605 5613 5621 5628 5634 5640 5644 5648 5651 5653
5187 5181 5175 5172 5170 5169 5171 5174 5178 5182 5189 5195 5203 5212 5224 5239 5258 5278 5299 5317 5336 5357 5378 5401 5426 5450 5470 5490 5507 5527 5547 5567 5583 5595 5605 5613 5620 5627 5633 5638 5643 5647 5649
5169 5162 5157 5153 5152 5152 5154 5159 5164 5170 5177 5184 5192 5201 5214 5229 5245 5264 5283 5301 5318 5338 5361 5384 5406 5430 5451 5473 5492 5511 5529 5550 5568 5583 5595 5604 5612 5619 5626 5632 5636 5641 5644
5150 5142 5136 5132 5131 5132 5136 5143 5150 5158 5167 5175 5183 5192 5205 5219 5233 5250 5270 5289 5308 5324 5343 5368 5384 5407 5432 5456 5477 5495 5514 5534 5555 5572 5584 5593 5602 5610 5617 5624 5629 5634 5637
5132 5121 5113 5108 5108 5111 5118 5127 5137 5147 5158 5167 5175 5185 5197 5210 5224 5241 5260 5280 5301 5317 5336 5354 5368 5392 5417 5442 5464 5482 5501 5519 5538 5557 5572 5582 5591 5600 5608 5615 5622 5627 5631
5115 5102 5094 5091 5092 5097 5104 5115 5127 5139 5149 5159 5169 5178 5190 5203 5217 5233 5251 5271 5292 5312 5328 5343 5357 5379 5406 5431 5453 5471 5489 5505 5523 5543 5559 5570 5580 5589 5598 5606 5613 5619 5624
5102 5092 5087 5087 5091 5096 5103 5114 5125 5135 5145 5154 5163 5172 5182 5194 5208 5224 5242 5262 5283 5306 5325 5339 5352 5370 5396 5420 5442 5461 5475 5489 5510 5531 5548 5560 5569 5579 5588 5596 5604 5611 5617
5096 5088 5087 5091 5096 5103 5113 5122 5129 5135 5142 5150 5157 5165 5174 5186 5199 5216 5235 5252 5274 5296 5319 5336 5350 5365 5387 5410 5432 5451 5463 5479 5499 5519 5536 5548 5558 5568 5578 5588 5597 5603 5608
5092 5087 5088 5094 5101 5110 5120 5127 5129 5132 5136 5143 5150 5158 5167 5180 5193 5209 5227 5244 5264 5284 5304 5323 5341 5358 5377 5398 5420 5437 5452 5468 5487 5505 5521 5536 5549 5560 5568 5577 5586 5594 5599
5093 5087 5088 5093 5100 5109 5121 5125 5125 5126 5130 5135 5142 5151 5162 5173 5186 5200 5218 5235 5254 5272 5288 5301 5317 5336 5357 5377 5398 5419 5439 5455 5474 5494 5510 5523 5537 5548 5559 5568 5577 5585 5590
5094 5088 5087 5091 5097 5107 5118 5121 5122 5121 5124 5129 5135 5144 5155 5168 5182 5193 5209 5226 5242 5259 5274 5284 5296 5312 5333 5356 5379 5403 5423 5440 5461 5479 5496 5510 5524 5537 5548 5558 5566 5574 5580
5097 5089 5087 5089 5094 5102 5112 5116 5116 5117 5119 5123 5129 5138 5150 5163 5180 5191 5203 5219 5233 5246 5261 5273 5284 5296 5314 5337 5359 5379 5401 5421 5442 5462 5483 5499 5512 5524 5534 5544 5553 5561 5567
5103 5093 5089 5088 5091 5097 5107 5111 5110 5111 5114 5118 5125 5134 5147 5159 5175 5188 5199 5214 5228 5239 5252 5264 5274 5284 5298 5319 5341 5362 5385 5409 5435 5452 5469 5488 5499 5507 5515 5526 5536 5544 5550
5110 5099 5093 5090 5091 5095 5103 5108 5107 5106 5109 5114 5121 5130 5143 5156 5170 5183 5194 5208 5222 5231 5243 5255 5264 5273 5285 5301 5323 5343 5365 5392 5423 5441 5456 5473 5484 5490 5490 5499 5512 5521 5527